User: anonymous   Login
Location: Oshawa
(43.9000°N, 78.8670°W)
Time: 01:23:32
(UTC-04:00)
Language:

ITAMSAT 1 - Orbit

View from above orbital plane
View from above orbital plane
View from above satellite
View from above satellite

Ground track
Ground track

The orbit data is extracted from the following two-line orbital elements,

1 22826U 93061D   15215.47259495  .00000069  00000-0  43764-4 0  9991
2 22826 098.7061 165.7650 0009299 155.3016 204.8613 14.30213512139844
Epoch (UTC): 03 August 2015 11:20:32
Eccentricity: 0.0009299
inclination: 98.7061°
perigee height: 784 km
apogee height: 797 km
right ascension of ascending node: 165.7650°
argument of perigee: 155.3016°
revolutions per day: 14.30213512
mean anomaly at epoch: 204.8613°
orbit number at epoch: 13984

The dashed part of the orbit path shows where the satellite is in the earth's shadow,  

DLR